EHI
15 10 5 2 1 0 0 0 0 0 0 0 0 0 0 0 0 1 1 1 0 1 2 3 3 3 3 3 3 3 3 3 3 3 3 3 3 3 3 2 1 2 3 3 3 3 4 4 4
10 7 3 1 0 0 0 0 0 0 0 0 0 0 0 0 0 0 0 0 0 1 2 3 3 3 3 3 3 3 3 3 3 3 3 3 3 3 3 3 2 2 3 3 3 3 3 3 3
5 3 1 0 0 0 0 0 0 0 0 0 0 0 0 0 0 0 0 0 0 0 1 3 3 3 3 3 3 3 3 3 3 3 3 3 3 3 3 3 3 3 3 3 3 2 2 2 2
2 1 0 0 0 0 0 0 0 0 0 0 0 0 0 0 0 0 0 0 0 0 1 2 3 3 3 3 3 3 3 3 3 3 3 3 3 3 3 3 3 3 3 2 2 2 3 3 3
2 1 0 0 0 0 0 0 0 0 0 0 0 0 0 0 0 0 0 0 0 0 1 2 3 3 3 3 3 3 3 3 3 3 3 3 3 3 3 2 3 3 1 1 1 2 3 3 3
1 0 0 0 0 0 0 0 0 0 0 0 0 0 1 1 1 1 0 0 0 0 0 1 3 3 3 3 3 3 3 3 3 3 3 3 3 3 3 3 3 2 1 0 0 1 2 3 3
0 0 0 0 0 0 0 0 0 0 0 0 0 0 2 5 5 2 1 0 0 0 0 1 2 3 3 3 3 3 3 3 3 3 3 3 3 3 3 3 3 2 1 0 0 0 1 3 3
0 0 0 0 0 0 0 0 0 0 0 0 0 0 4 9 11 7 3 0 0 0 0 1 1 2 3 3 3 3 3 3 3 3 3 3 3 3 2 2 2 1 0 0 0 0 1 2 3
0 0 0 0 0 0 0 0 0 0 0 0 0 0 5 14 19 14 7 1 0 0 0 0 0 1 2 3 3 3 3 3 3 3 3 3 2 2 1 1 0 0 0 0 0 0 1 2 2
0 0 0 0 0 0 0 0 0 0 0 0 0 0 6 15 19 15 7 2 0 0 0 0 0 0 1 2 3 3 3 3 3 3 3 3 1 0 0 0 0 0 0 0 0 0 0 1 1
0 0 0 0 0 0 0 0 0 0 0 0 0 1 4 10 11 7 3 1 0 0 0 0 0 0 1 2 3 3 3 3 3 3 3 2 1 0 0 0 0 0 0 0 0 0 0 0 0
0 0 0 0 0 0 0 0 0 0 0 0 0 1 2 4 3 1 0 0 0 0 0 0 0 0 1 2 3 3 3 3 3 3 1 1 0 0 0 0 0 0 0 0 0 0 0 0 0
0 0 0 0 0 0 0 0 0 0 0 0 0 0 1 1 0 0 0 0 0 0 0 0 0 0 0 1 2 2 3 3 3 2 1 0 0 0 0 0 0 0 0 0 0 0 0 0 0
0 0 0 0 0 0 0 0 0 0 0 0 0 0 0 0 0 0 0 0 0 0 0 0 0 0 0 1 2 2 3 3 3 2 1 0 0 0 0 0 0 0 0 0 0 0 0 0 0
0 0 0 0 0 0 0 0 0 0 0 0 0 0 0 0 0 0 0 0 0 0 0 0 0 0 0 0 1 2 3 3 3 2 1 0 0 0 0 0 0 0 0 0 0 0 0 0 0
0 0 0 0 0 0 0 0 0 0 0 0 0 0 0 0 0 0 0 0 0 0 0 0 0 1 1 1 1 2 3 3 3 2 1 0 0 0 0 0 0 0 0 0 0 0 0 0 0
0 0 0 0 0 0 0 0 0 0 0 0 0 0 0 0 0 0 0 0 0 0 0 0 1 2 2 2 3 3 3 3 3 3 1 0 0 0 0 0 0 0 0 0 0 0 0 0 0
0 0 0 0 0 0 0 0 0 0 0 0 0 0 0 0 0 0 0 0 0 0 0 1 2 5 11 18 20 14 7 4 3 3 2 1 0 0 0 0 0 0 0 0 0 0 0 0 0
0 0 0 0 0 0 0 0 0 0 0 0 0 0 0 0 1 2 2 2 1 0 1 2 5 13 33 53 55 41 22 9 5 3 2 2 1 0 0 0 0 0 0 0 0 0 0 0 0
0 0 0 0 0 0 0 0 0 0 0 0 0 0 0 1 2 6 12 14 10 4 2 4 9 27 59 83 85 72 51 28 12 5 3 2 1 0 0 0 0 0 1 1 0 0 0 0 0
0 0 0 0 0 0 0 0 0 0 0 0 0 0 0 0 2 8 22 34 34 25 14 11 20 43 74 91 92 85 71 46 21 7 3 2 1 0 0 0 0 0 1 1 0 0 0 0 0
0 0 0 0 0 0 0 0 0 0 0 0 0 0 0 0 1 6 19 37 51 50 38 30 37 58 77 82 76 69 60 42 23 10 4 1 0 0 0 0 0 0 1 1 0 0 0 0 0
0 0 0 0 0 0 0 0 0 0 0 0 0 0 0 0 0 2 7 19 36 48 48 45 52 61 64 57 46 38 31 25 19 13 6 2 0 0 0 0 0 0 0 0 0 0 0 0 0
0 0 0 0 0 0 0 0 0 0 0 0 0 0 0 0 0 0 1 4 13 25 33 37 42 42 36 27 19 13 11 12 12 10 7 4 1 0 0 0 0 0 0 0 0 0 0 0 0
0 0 0 0 0 0 0 0 0 0 0 0 0 0 0 0 0 0 0 1 3 8 12 15 18 17 13 9 6 4 4 6 6 6 7 4 1 0 0 0 0 0 0 0 0 0 0 0 0
0 0 0 0 0 0 0 0 0 0 0 0 0 0 0 0 0 0 0 0 1 1 1 3 5 6 5 4 4 3 4 5 4 4 4 2 0 0 0 0 0 0 0 0 0 0 0 0 0
0 0 0 0 0 0 0 0 0 0 0 0 0 0 0 0 0 0 0 0 0 0 0 1 2 3 3 3 3 2 3 3 2 2 1 0 0 0 0 0 0 0 0 0 0 0 0 0 0
0 0 0 0 0 0 0 0 0 0 0 0 0 0 0 0 0 0 0 0 0 0 0 0 1 1 2 2 1 1 1 1 0 0 0 0 0 0 0 0 0 0 0 0 0 0 0 0 0
0 0 0 0 0 0 0 0 0 0 0 0 0 0 0 0 0 0 0 0 0 0 0 0 0 0 1 1 0 0 0 0 0 0 0 0 0 0 0 0 0 0 0 0 0 0 0 0 0
0 0 0 0 0 0 0 0 0 0 0 0 0 0 0 0 0 0 0 0 0 0 0 0 0 0 0 0 0 0 0 0 0 0 0 0 0 0 0 0 0 0 0 0 0 0 0 0 0
Wind_Speed
4 3 3 3 4 5 9 6 3 3 3 4 3 2 3 5 5 5 5 12 14 16 15 17 15 15 14 13 13 12 12 11 11 11 10 10 9 9 9 9 8 8 8 8 7 7 7 6 7
1 2 4 4 2 7 8 3 3 3 5 5 4 2 2 5 6 6 8 12 15 15 14 15 15 14 14 13 13 12 12 11 11 11 10 10 9 9 9 9 9 9 8 8 8 8 7 6 6
2 4 4 2 3 6 7 3 3 4 4 0 2 2 3 5 5 6 9 15 15 14 13 14 14 13 13 13 12 12 12 11 11 11 10 9 9 9 9 9 10 10 10 9 9 8 8 7 6
3 4 4 2 7 5 2 2 1 5 3 1 1 4 4 5 4 7 14 15 15 14 13 14 14 13 12 12 12 12 12 12 11 11 10 9 9 8 8 10 11 11 10 10 9 9 8 8 7
3 4 3 4 5 3 1 2 2 4 2 0 2 2 5 5 7 12 14 14 14 14 12 14 14 13 12 12 12 12 12 12 11 10 10 9 9 8 8 10 11 11 10 10 9 9 9 9 8
3 4 3 5 5 3 2 1 3 5 2 1 2 2 6 7 9 12 13 12 13 13 13 13 14 12 12 11 11 12 12 12 12 11 10 9 9 8 8 9 10 11 10 9 9 9 9 8 8
4 2 2 4 5 4 2 1 3 3 3 2 2 2 6 9 10 12 12 11 11 12 12 11 13 13 12 11 11 12 13 13 12 11 11 10 9 8 8 9 9 10 9 9 8 8 8 8 8
4 2 4 4 4 3 2 1 1 3 1 2 3 2 4 11 12 12 11 10 10 11 11 11 11 11 12 12 12 13 13 13 12 11 11 10 9 9 8 9 8 8 8 8 8 8 8 8 9
5 5 4 3 2 3 1 1 2 1 2 4 3 2 4 14 14 13 11 11 10 10 10 10 10 9 9 9 11 12 12 12 12 11 11 11 10 10 9 8 8 7 8 7 7 7 7 7 9
3 4 2 2 2 2 2 2 0 3 4 4 4 4 9 15 15 15 14 13 13 12 11 9 9 9 9 7 8 8 9 10 10 9 11 9 7 5 5 12 7 8 8 7 6 6 6 6 6
2 3 3 2 3 3 2 1 1 4 3 3 2 7 13 15 15 14 14 12 12 12 11 10 10 9 9 7 6 6 5 6 8 10 10 7 6 6 5 7 9 8 9 8 7 8 5 4 3
3 2 3 3 4 3 3 3 2 3 6 9 8 4 14 16 16 14 13 12 11 10 11 11 10 10 9 8 6 6 5 6 6 8 10 7 5 5 5 4 6 6 5 4 5 3 5 4 5
3 2 2 4 4 4 5 4 4 4 9 9 6 5 13 15 15 14 12 11 11 11 11 11 11 10 10 8 6 7 6 6 7 7 8 8 6 6 6 5 4 5 4 6 4 4 4 4 3
3 4 4 3 4 3 5 3 2 8 11 10 7 2 8 11 12 12 13 12 12 12 12 11 11 11 10 8 8 7 6 6 6 7 8 9 6 5 5 6 5 5 5 5 4 4 3 3 3
4 6 5 1 2 3 6 1 8 11 11 10 9 5 4 6 9 11 11 11 12 11 12 12 11 11 11 10 9 6 6 7 6 6 8 9 7 6 6 5 6 6 6 7 4 4 3 3 3
5 7 6 2 2 3 6 1 11 12 11 11 10 9 6 5 8 10 11 11 11 11 12 12 10 11 11 10 9 7 7 8 6 6 7 9 9 8 6 5 5 6 6 5 5 4 4 4 4
7 8 6 1 3 3 3 2 9 11 10 10 10 10 8 7 7 8 10 11 12 12 12 13 13 13 12 11 9 8 7 7 6 6 7 9 9 9 7 5 5 7 6 6 6 5 5 4 4
4 5 4 2 3 4 2 2 6 10 11 11 11 11 10 10 9 8 9 10 12 13 14 14 14 14 13 10 8 6 6 6 6 7 7 9 8 9 6 5 7 7 6 6 6 6 5 4 4
4 5 5 3 3 5 4 2 4 8 10 12 12 12 13 12 11 9 8 8 10 13 15 16 15 15 12 10 9 7 7 6 6 6 8 9 9 9 8 6 8 7 7 9 9 7 8 6 6
4 6 6 3 2 6 6 4 3 6 10 11 13 14 15 15 14 12 10 7 8 11 14 17 17 15 14 11 10 8 7 5 5 5 7 9 9 10 9 10 8 8 7 9 9 8 6 6 6
3 5 6 8 6 6 8 8 6 4 6 10 12 14 15 16 16 15 13 10 8 7 10 12 14 15 14 12 9 7 6 4 4 4 4 7 8 8 8 8 8 8 8 8 9 9 10 7 8
5 6 8 9 9 7 5 8 5 2 4 11 14 15 16 16 16 15 14 13 11 9 6 7 9 10 10 10 8 8 5 3 2 1 2 4 6 7 7 7 7 7 6 7 8 9 8 8 7
9 11 11 11 12 13 11 10 4 3 6 12 15 15 15 15 15 14 13 12 11 10 6 3 4 7 8 8 8 8 6 4 3 2 1 1 3 4 5 6 6 6 5 6 7 7 8 7 7
12 12 12 10 10 14 13 12 3 6 10 13 14 15 15 14 14 13 12 11 9 9 7 7 9 9 9 8 9 11 9 7 4 3 2 1 1 2 5 5 5 5 5 6 6 6 8 7 8
12 11 6 7 8 7 2 5 7 8 9 11 14 14 14 13 12 12 12 10 9 8 8 8 10 10 9 9 9 11 10 7 4 2 1 1 2 3 5 5 5 4 4 4 5 6 6 7 8
9 9 7 7 6 5 3 0 7 8 9 10 12 12 13 12 11 10 10 9 8 8 8 9 10 10 9 8 8 8 8 4 2 1 1 3 3 3 5 6 5 5 5 4 5 5 6 6 7
10 8 6 8 9 8 4 5 3 11 13 15 15 15 15 13 11 9 9 8 7 8 8 9 9 9 8 8 6 7 6 3 1 1 2 3 4 4 6 7 6 6 5 5 5 4 5 5 6
9 8 6 5 6 5 1 4 7 15 17 17 16 16 15 13 10 9 9 8 7 7 7 7 7 7 6 6 5 4 3 0 2 3 5 6 6 6 7 7 7 6 6 5 5 5 4 5 5
9 6 6 5 4 5 3 3 7 12 14 14 14 14 14 12 10 9 8 7 6 6 6 6 5 6 6 5 4 3 0 3 5 6 6 6 6 7 7 7 7 7 7 6 5 5 5 5 6
5 7 5 4 4 4 3 2 7 11 11 12 12 12 12 12 10 9 8 7 6 6 5 4 4 4 3 3 2 1 4 6 7 7 6 6 6 6 7 7 7 6 6 6 6 6 6 6 5
Wind_Direction
201 180 199 233 222 101 84 81 75 81 79 71 68 45 28 22 352 31 99 155 145 147 147 152 155 155 156 155 154 150 146 144 142 139 136 131 124 119 113 108 102 97 96 96 92 88 86 88 98
253 180 236 249 163 101 92 86 79 53 90 104 101 90 62 63 46 85 135 150 151 148 152 152 152 156 158 160 160 156 151 148 144 141 137 132 126 120 116 111 103 97 95 93 89 85 86 91 101
192 236 269 242 93 82 93 83 60 106 128 161 118 73 32 51 85 117 139 153 155 151 153 145 155 157 159 162 162 158 155 152 148 144 140 136 131 126 121 113 105 98 93 90 88 83 82 88 105
234 233 239 181 106 80 62 67 62 151 177 199 210 123 85 60 95 118 140 156 156 156 156 150 162 161 162 164 163 161 158 156 154 151 147 142 136 134 130 120 110 101 93 88 85 80 77 81 95
248 258 199 131 111 96 69 323 259 205 193 199 257 112 103 95 107 130 148 158 162 162 161 157 166 166 166 168 168 164 162 160 159 156 150 144 141 141 135 126 117 109 100 91 84 77 70 74 88
247 251 196 144 119 116 134 212 240 226 213 189 224 147 105 124 139 145 153 164 166 165 167 162 167 172 172 172 172 167 163 163 162 158 152 146 143 139 132 128 122 113 105 98 89 81 72 72 87
278 250 166 148 146 140 92 327 240 228 228 220 228 162 129 149 149 154 157 163 164 168 172 173 171 177 179 181 180 174 169 167 166 163 157 151 146 140 135 131 125 118 114 107 98 90 82 82 88
300 239 158 161 168 132 66 230 227 251 212 111 210 239 152 157 155 159 159 162 169 177 179 182 183 180 180 181 185 183 175 172 169 166 163 155 151 150 146 155 134 131 126 117 108 99 91 93 93
279 248 178 146 160 110 44 201 126 228 168 174 203 1 92 145 157 163 165 172 178 187 188 188 186 183 182 183 176 184 181 175 172 171 168 174 177 166 172 135 135 145 136 128 120 110 106 115 111
276 265 82 60 0 13 359 337 23 204 213 203 178 138 140 156 168 175 180 182 184 189 194 195 194 185 184 186 174 187 182 178 186 180 177 194 175 166 148 119 151 148 139 141 129 127 164 206 147
295 326 20 31 357 322 309 332 313 264 259 304 270 175 167 174 181 188 191 190 188 189 190 200 198 193 187 186 181 186 175 184 190 181 178 195 170 165 167 157 164 162 172 168 152 190 184 179 123
291 344 333 352 358 322 315 320 316 302 346 339 314 224 182 188 192 196 197 192 188 192 191 195 199 194 195 192 185 187 180 188 186 186 183 186 184 185 168 181 161 166 182 174 193 201 171 186 178
270 319 4 353 337 320 302 296 310 11 353 335 322 218 198 198 198 200 202 195 192 191 195 194 197 200 195 194 193 189 191 194 190 186 190 189 187 191 169 179 175 191 179 180 200 213 176 198 178
329 305 307 319 321 331 313 300 328 22 356 359 357 272 220 213 211 205 203 203 199 196 198 192 197 199 199 193 199 194 189 196 201 188 199 194 191 195 181 187 181 190 191 191 197 186 175 191 177
274 272 254 278 341 3 299 205 46 13 4 14 10 2 307 254 233 229 219 214 210 204 203 196 200 199 201 202 201 191 191 194 203 196 204 199 194 197 196 195 184 188 192 192 202 170 184 170 171
249 252 250 111 14 2 289 144 43 12 13 18 11 5 345 305 271 254 245 235 225 215 213 201 199 205 201 201 200 196 198 196 202 196 206 209 199 203 201 197 194 193 192 195 193 205 194 184 199
231 256 266 162 57 348 313 30 37 20 20 19 11 2 352 338 316 294 277 261 247 232 221 211 205 207 202 199 200 202 200 196 202 205 204 210 209 209 204 202 201 193 199 204 204 208 214 209 209
289 279 268 283 33 323 299 48 48 31 27 22 13 5 358 348 339 325 308 287 270 249 233 220 209 208 201 195 198 194 202 199 201 208 210 211 212 217 212 207 210 203 204 212 218 210 223 233 224
311 287 283 320 5 307 299 336 58 39 31 22 14 7 1 352 340 330 312 291 270 256 241 226 215 206 199 189 188 186 194 198 204 211 215 213 215 219 218 222 216 210 214 218 223 220 221 223 221
299 288 292 290 329 297 286 275 98 55 38 25 13 7 3 355 349 346 333 311 276 258 247 235 217 208 198 191 186 186 182 187 196 212 218 219 219 222 223 221 220 219 223 227 229 223 226 221 214
319 325 316 304 297 250 275 246 177 95 45 29 19 11 7 1 352 350 348 343 322 286 261 244 225 206 196 187 175 162 150 145 166 198 211 220 221 221 223 225 219 223 221 223 226 224 224 221 221
311 357 313 293 279 267 254 273 182 49 27 19 11 6 2 357 352 351 353 354 352 340 309 257 220 194 179 170 167 154 144 142 166 186 204 216 219 216 215 220 218 219 221 224 227 227 229 226 223
340 324 300 286 274 270 243 255 205 58 11 3 360 358 356 353 351 351 353 355 358 -0 11 51 121 135 139 143 131 111 95 77 48 22 349 221 217 214 206 210 212 221 222 229 229 231 232 229 230
331 305 279 257 256 254 250 244 159 39 1 349 349 351 351 350 351 351 355 358 7 15 35 72 96 104 112 119 113 104 96 81 57 23 1 316 229 208 199 200 206 216 222 228 230 230 232 240 241
349 330 288 252 234 252 286 245 77 32 5 350 343 344 347 348 352 353 357 2 13 26 42 67 87 91 97 101 99 99 94 89 81 45 352 278 235 207 191 188 198 204 211 217 224 230 234 234 241
347 343 330 304 298 311 294 160 91 24 7 355 349 347 349 352 352 355 2 10 23 41 54 69 79 85 87 88 88 90 90 90 84 55 308 264 250 216 182 183 188 190 197 204 213 236 231 239 234
343 353 339 297 287 278 247 106 102 3 0 357 354 353 351 350 353 3 15 24 37 50 57 66 75 78 79 81 78 76 79 73 76 252 256 252 233 201 183 182 186 188 194 209 210 231 229 238 241
3 335 315 299 304 293 324 55 5 350 348 346 349 349 347 348 2 22 30 31 40 48 59 68 69 70 73 74 76 83 82 58 252 246 242 236 219 197 190 195 194 190 190 198 212 229 231 236 239
356 355 330 302 301 309 323 49 10 339 337 339 344 347 349 353 18 34 35 32 24 24 30 34 42 59 64 67 74 74 35 255 249 245 243 237 222 204 202 203 206 194 193 198 203 228 219 233 236
4 352 330 328 330 314 301 33 11 347 348 353 352 358 359 9 30 41 36 25 12 6 4 7 11 31 30 35 39 291 246 241 235 231 229 223 214 209 214 202 209 203 206 210 210 217 221 231 242